This is the latest recevied weather packets stored in our database for station/object KB3HHA-13. If no packets are shown the sender has not sent any weather packets the latest 10 day(s).
| Time | Temp. | Humidity | Pressure | Rain* | Wind** | Luminosity | Snow |
|---|---|---|---|---|---|---|---|
| 1777653424 | 17.22° C | 44% | 1013.3 hPa | 0 mm | - | - | - |
| 1777653121 | 17.22° C | 48% | 1013.4 hPa | 0 mm | - | - | - |
| 1777652820 | 17.22° C | 43% | 1013.5 hPa | 0 mm | - | - | - |
| 1777652522 | 17.22° C | 43% | 1013.6 hPa | 0 mm | - | - | - |
| 1777652220 | 16.67° C | 48% | 1013.7 hPa | 0 mm | - | - | - |
| 1777651923 | 16.67° C | 50% | 1013.7 hPa | 0 mm | - | - | - |
| 1777651622 | 16.11° C | 51% | 1013.7 hPa | 0 mm | - | - | - |
| 1777651323 | 16.11° C | 50% | 1013.8 hPa | 0 mm | - | - | - |
| 1777651020 | 15.56° C | 48% | 1013.9 hPa | 0 mm | - | - | - |
| 1777650722 | 15.56° C | 49% | 1014 hPa | 0 mm | - | - | - |
| 1777650420 | 15.56° C | 50% | 1014 hPa | 0 mm | - | - | - |
| 1777650120 | 15° C | 51% | 1014.1 hPa | 0 mm | - | - | - |
| 1777649821 | 15° C | 50% | 1014.3 hPa | 0 mm | - | - | - |
| 1777649520 | 14.44° C | 51% | 1014.3 hPa | 0 mm | - | - | - |
| 1777649221 | 14.44° C | 50% | 1014.4 hPa | 0 mm | - | - | - |
| 1777648922 | 14.44° C | 51% | 1014.5 hPa | 0 mm | - | - | - |
| 1777648621 | 14.44° C | 51% | 1014.5 hPa | 0 mm | - | - | - |
| 1777648322 | 14.44° C | 53% | 1014.6 hPa | 0 mm | - | - | - |
| 1777648023 | 13.89° C | 53% | 1014.6 hPa | 0 mm | - | - | - |
| 1777647720 | 13.89° C | 52% | 1014.8 hPa | 0 mm | - | - | - |
| 1777647421 | 13.33° C | 53% | 1014.7 hPa | 0 mm | - | - | - |
| 1777647121 | 13.33° C | 54% | 1014.7 hPa | 0 mm | - | - | - |
| 1777646820 | 13.33° C | 55% | 1014.8 hPa | 0 mm | - | - | - |
| 1777646521 | 12.78° C | 54% | 1014.8 hPa | 0 mm | - | - | - |
| 1777646222 | 12.78° C | 53% | 1014.8 hPa | 0 mm | - | - | - |
* Rain latest hour (hover to see other rain measurements)
** Current wind speed in m/s (hover to see current wind gust speed)